This is the latest recevied weather packets stored in our database for station/object K6CQU-13. If no packets are shown the sender has not sent any weather packets the latest 10 day(s).
| Time | Temp. | Humidity | Pressure | Rain* | Wind** | Luminosity | Snow |
|---|---|---|---|---|---|---|---|
| 1787763317 | 23.33° C | 62% | 1014.8 hPa | 0 mm | - | 564 W/m² | - |
| 1787763017 | 23.33° C | 62% | 1014.7 hPa | 0 mm | - | 550 W/m² | - |
| 1787762717 | 23.33° C | 62% | 1014.8 hPa | 0 mm | - | 535 W/m² | - |
| 1787762417 | 22.78° C | 62% | 1014.8 hPa | 0 mm | - | 522 W/m² | - |
| 1787762117 | 23.33° C | 64% | 1014.8 hPa | 0 mm | - | 506 W/m² | - |
| 1787761817 | 22.78° C | 64% | 1014.7 hPa | 0 mm | - | 490 W/m² | - |
| 1787761517 | 22.78° C | 64% | 1014.7 hPa | 0 mm | - | 475 W/m² | - |
| 1787761218 | 22.78° C | 66% | 1014.7 hPa | 0 mm | - | 461 W/m² | - |
| 1787760917 | 22.22° C | 67% | 1014.6 hPa | 0 mm | - | 446 W/m² | - |
| 1787760617 | 21.67° C | 67% | 1014.7 hPa | 0 mm | - | 429 W/m² | - |
| 1787760318 | 21.67° C | 69% | 1014.6 hPa | 0 mm | - | 413 W/m² | - |
| 1787760017 | 21.11° C | 71% | 1014.7 hPa | 0 mm | - | 396 W/m² | - |
| 1787759717 | 20.56° C | 70% | 1014.7 hPa | 0 mm | - | 380 W/m² | - |
| 1787759417 | 20.56° C | 69% | 1014.6 hPa | 0 mm | - | 365 W/m² | - |
| 1787759117 | 20.56° C | 71% | 1014.7 hPa | 0 mm | - | 351 W/m² | - |
| 1787758817 | 20° C | 70% | 1014.8 hPa | 0 mm | - | 334 W/m² | - |
| 1787758517 | 20° C | 69% | 1014.7 hPa | 0 mm | - | 318 W/m² | - |
| 1787758217 | 20° C | 71% | 1014.8 hPa | 0 mm | - | 302 W/m² | - |
| 1787757917 | 20° C | 73% | 1014.9 hPa | 0 mm | - | 284 W/m² | - |
| 1787757617 | 19.44° C | 76% | 1014.9 hPa | 0 mm | - | 266 W/m² | - |
| 1787757317 | 18.89° C | 76% | 1014.9 hPa | 0 mm | - | 251 W/m² | - |
| 1787757017 | 18.89° C | 76% | 1014.9 hPa | 0 mm | - | 238 W/m² | - |
| 1787756717 | 18.89° C | 78% | 1014.9 hPa | 0 mm | - | 222 W/m² | - |
| 1787756417 | 18.33° C | 79% | 1014.8 hPa | 0 mm | - | 205 W/m² | - |
| 1787756117 | 18.33° C | 80% | 1014.8 hPa | 0 mm | - | 189 W/m² | - |
* Rain latest hour (hover to see other rain measurements)
** Current wind speed in m/s (hover to see current wind gust speed)